User: anonymous   Login
Location: ROBOsky.com Wild Flower Ridge Observatory
(43.9736°N, 79.9739°W)
Time: 13:21:43
(UTC-04:00)
Language:

Cosmos 1190 Rocket - Orbit

View from above orbital plane
View from above orbital plane
View from above satellite
View from above satellite

Ground track
Ground track

The orbit data is extracted from the following two-line orbital elements,

1 11870U 80056B   15088.05531050  .00000496  00000-0  17704-3 0  9998
2 11870 074.0512 257.1147 0015657 049.5201 310.7314 14.36666577818311
Epoch (UTC): 29 March 2015 01:19:38
Eccentricity: 0.0015657
inclination: 74.0512°
perigee height: 758 km
apogee height: 781 km
right ascension of ascending node: 257.1147°
argument of perigee: 49.5201°
revolutions per day: 14.36666577
mean anomaly at epoch: 310.7314°
orbit number at epoch: 81831

The dashed part of the orbit path shows where the satellite is in the earth's shadow,  

DLR